Location: New Plymouth
(39.0670°S, 174.0830°E)
Time: 17:33:31
(UTC+12:00)

NOAA 19 - Pass Details

Date: 28 August 2019
Orbit: 840 x 862 km, 99.2° (Epoch: 19 September)

Event Time Altitude Azimuth Distance (km) Brightness Sun altitude
Rises 03:35:58 0° 58° (ENE) 3,398 8.8 -38.6°
Reaches altitude 10° 03:38:58 10° 75° (ENE) 2,473 8.1 -38.1°
Maximum altitude 03:42:42 19° 118° (ESE) 1,918 7.6 -37.4°
Drops below altitude 10° 03:46:29 10° 161° (SSE) 2,500 8.0 -36.7°
Sets 03:49:31 0° 178° (S) 3,447 8.6 -36.2°
